Location: Vale
(35.4830°N, 81.3830°W)
Time: 05:05:05
(UTC-05:00)

Cosmos 2237 Rocket - Visible Passes

Search period start: 18 January 2017 00:00
Search period end: 28 January 2017 00:00
Orbit: 835 x 850 km, 71.0° (Epoch: 17 January)

Date Brightness Start Highest point End Pass type
(mag) Time Alt. Az. Time Alt. Az. Time Alt. Az.
18 Jan 5.1 03:40:53 11° E 03:40:53 11° E 03:41:04 10° E visible
18 Jan 2.5 05:22:47 52° SSW 05:22:47 52° SSW 05:27:20 10° S visible
18 Jan 2.3 18:20:23 10° S 18:25:50 57° ESE 18:31:22 10° NNE visible
18 Jan 4.5 20:06:26 10° W 20:10:17 19° NW 20:14:08 10° NNW visible
19 Jan 3.3 05:09:28 33° S 05:09:28 33° S 05:12:32 10° S visible
19 Jan 2.4 18:05:35 10° S 18:11:02 54° ESE 18:16:30 10° NNE visible
19 Jan 4.5 19:51:26 10° WSW 19:55:24 19° WNW 19:59:25 10° N visible
20 Jan 4.1 04:56:09 20° S 04:56:09 20° S 04:57:45 10° S visible
20 Jan 4.5 19:36:26 10° WSW 19:40:32 20° WNW 19:44:40 10° N visible
21 Jan 4.7 04:42:49 11° SSE 04:42:49 11° SSE 04:42:56 10° SSE visible
21 Jan 4.4 19:21:27 10° WSW 19:25:40 21° WNW 19:29:55 10° N visible
22 Jan 4.4 19:06:28 10° WSW 19:10:48 22° WNW 19:15:10 10° N visible
23 Jan 4.3 18:51:30 10° WSW 18:55:56 24° WNW 19:00:25 10° N visible
24 Jan 4.3 18:36:32 10° WSW 18:41:04 25° WNW 18:45:39 10° N visible
25 Jan 4.2 18:21:35 10° WSW 18:26:13 26° WNW 18:30:54 10° N visible
26 Jan 4.1 18:06:38 10° WSW 18:11:21 27° WNW 18:16:07 10° N visible
